Regional Weather Roundup
Issued by NWS Northern Indiana

Home | Current Version | Previous Version | Text Only | Print | Product List | Glossary Off
Versions: 1 2 3 4 5 6 7 8 9 10 11 12 13 14 15 16 17 18 19 20 21 22 23 24 25 26 27 28 29 30 31 32 33 34 35 36 37 38 39 40 41 42 43 44 45 46 47 48 49 50

000
ASUS43 KIWX 310110
RWRIWX

KIWX WEATHER ROUNDUP
NATIONAL WEATHER SERVICE NORTHERN INDIANA
900 PM EDT MON MAY 30 2016

NOTE: "FAIR" INDICATES FEW OR NO CLOUDS BELOW 12,000 FEET WITH NO
SIGNIFICANT WEATHER AND/OR OBSTRUCTIONS TO VISIBILITY.

* THESE STATIONS ARE NOT UNDER NWS QUALITY CONTROL. THEY ALSO MAY NOT
  REPORT WEATHER SUCH AS PRECIPITATION OR FOG.

INZ001>027-310200-
NORTHERN INDIANA

CITY           SKY/WX    TMP DP  RH WIND       PRES   REMARKS
GARY*          MOCLDY    75  63  64 NE10      29.97R
VALPARAISO     CLOUDY    78  58  49 N3        29.97S
MICHIGAN CITY* MOCLDY    72  59  64 N3        29.98R
LAPORTE*       CLOUDY    78  58  50 NE5       29.98S
KNOX*          CLOUDY    77  45  31 NE6       29.96S
SOUTH BEND     CLOUDY    74  56  53 N6        29.98R
ELKHART*       CLEAR     79  59  50 CALM      29.98S
GOSHEN         CLEAR     72  54  53 NE3       29.97S
MONTICELLO*    CLOUDY    82  48  30 W6        29.95S
LOGANSPORT*    CLOUDY    77  55  47 W6        29.97S
ROCHESTER*     CLEAR     79  57  47 CALM      29.97R
WARSAW*        CLEAR     77  54  44 N3        29.97S
ANGOLA*          N/A     79  72  78 N3        29.98S
FORT WAYNE     CLOUDY    77  54  44 N5        29.97R
HUNTINGTON*    PTCLDY   N/A N/A N/A N3        29.96S
PERU/GRISSOM   PTCLDY    80  56  43 W5        29.96R
MARION*        MOCLDY    79  52  38 CALM      29.97S

$$
INZ028>050-310200-
CENTRAL INDIANA

CITY           SKY/WX    TMP DP  RH WIND       PRES   REMARKS
LAFAYETTE      CLEAR     76  60  57 W3        29.95S
KOKOMO*        PTCLDY    81  54  39 W8        29.96S
MUNCIE*        CLOUDY    83  53  35 CALM      29.97S
INDIANAPOLIS   MOCLDY    76  58  53 SW7       29.97S

$$
MIZ043>046-050>051-056>058-064>065-071>073-077>080-310200-
SOUTHWEST LOWER MICHIGAN

CITY           SKY/WX    TMP DP  RH WIND       PRES   REMARKS
BATTLE CREEK   CLEAR     72  55  55 NW6       29.99S
BENTON HARBOR  CLEAR     75  57  53 CALM      29.98R
COLDWATER*     CLEAR     74  50  43 NW5       29.99R
HILLSDALE*     CLEAR     74  45  35 NW6       29.99S
HOLLAND        CLEAR     73  56  54 NW3       30.00S
GRAND RAPIDS   PTCLDY    75  54  47 W8        29.99R
KALAMAZOO      CLEAR     73  55  53 NW5       29.98F
STURGIS*       CLEAR     74  54  49 N5        29.98R
THREE RIVERS*  FAIR      77  52  41 CALM      29.98S

$$
OHZ001>008-015>018-024>025-310200-
NORTHWEST OHIO

CITY           SKY/WX    TMP DP  RH WIND       PRES   REMARKS
WAUSEON*         N/A     79  77  94 NW5       29.96S
DEFIANCE       CLEAR     79  52  38 NW3       29.96S
FINDLAY        CLEAR     81  50  33 NW5       29.95S
TOLEDO EXPRESS CLEAR     79  50  36 N5        29.95S
TOLEDO METCALF CLEAR     80  51  36 NW6       29.96R
LIMA           CLEAR     78  56  46 CALM      29.97R

$$
AND FOR LAKE MICHIGAN COASTAL AND OPEN LAKE BUOY OBSERVATIONS

STATION/POSITION TEMP    WIND        PRES    VSBY  WAVE
                 AIR SEA DIR/SP/G                  HT/PER
                 (F)     (DEG/KT/KT) (MB)    (MI)  (FT/S)
CALUMET HARBOR    68                   N/A
MICHIGAN CITY     68      30/ 10/ 10   N/A
BURNS HARBOR      69      80/ 10/ 11 1014.9S
SAINT JOSEPH      74      20/  3/  7 1015.2F
SOUTH LAKE BUOY   61 58   90/  4/  6 1015.2S         0
4 MI NW BRIDGMAN  68 65   20/  8/ 10   N/A           1
MICHIGAN CITY     65 62   70/  6/  6   N/A           0

$$
&&




USA.gov is the U.S. government's official web portal to all federal, state and local government web resources and services.